Location: Madison
(43.0730°N, 89.3819°W)
Time: 17:02:20
(UTC-05:00)

Envisat - Visible Passes

Search period start: 18 March 2019 00:00
Search period end: 28 March 2019 00:00
Orbit: 764 x 766 km, 98.2° (Epoch: 18 March)

Date Brightness Start Highest point End Pass type
(mag) Time Alt. Az. Time Alt. Az. Time Alt. Az.
18 Mar 3.0 19:28:13 10° SSE 19:33:18 85° ENE 19:38:25 10° NNW visible
18 Mar 6.1 21:11:18 10° WSW 21:12:58 11° W 21:14:38 10° WNW visible
19 Mar 5.3 20:31:37 10° SSW 20:35:49 26° W 20:40:01 10° NW visible
20 Mar 3.8 19:53:53 10° S 19:58:51 56° W 20:03:52 10° NNW visible
21 Mar 5.9 20:58:47 10° WSW 21:01:36 15° W 21:04:26 10° NW visible
22 Mar 4.9 20:20:00 10° SSW 20:24:31 32° W 20:29:04 10° NNW visible
23 Mar 3.4 19:42:34 10° S 19:47:37 71° WSW 19:52:42 10° NNW visible
24 Mar 5.8 20:46:44 10° SW 20:50:15 19° W 20:53:49 10° NW visible
25 Mar 4.5 20:08:28 10° SSW 20:13:14 40° W 20:18:01 10° NNW visible
26 Mar 6.3 21:15:25 10° W 21:16:08 10° W 21:16:50 10° WNW visible
27 Mar 5.4 20:34:55 10° SW 20:38:56 24° W 20:43:00 10° NW visible
